When you browse on this site, cookies collect data to enhance your experience and personalize the content and advertising you see.
Visit our Privacy Policy to learn more. By continuing to use the site, you agree to this use of cookies and data.
  • In Germany
  • List of Countries
  • For 7 days
  • Water Temperature
  • Satellite Maps
  • Weather Map
  • Weather Widgets
  • user-avatar
    Login

    Hourly Weather Krasnoznamenka

    Today, 21 January, Monday

    Time Temperature Precipitation Wind Pressure Humidity
    00:00 -9°C° 0 mm 3 mps 756 mmHg 89%
    01:00 -9°C° 0 mm 3 mps 755 mmHg 89%
    02:00 -9°C° 0 mm 3 mps 755 mmHg 90%
    03:00 -8°C° 0 mm 2 mps 755 mmHg 89%
    04:00 -8°C° 0 mm 2 mps 754 mmHg 91%
    05:00 -7°C° 0 mm 2 mps 753 mmHg 92%
    06:00 -7°C° 0 mm 2 mps 753 mmHg 94%
    07:00 -6°C° 0 mm 3 mps 752 mmHg 95%
    08:00 -4°C° 0 mm 4 mps 752 mmHg 95%
    09:00 -2°C° 0 mm 4 mps 751 mmHg 96%
    10:00 -1°C° 0 mm 5 mps 750 mmHg 97%
    11:00 -1°C° 0 mm 5 mps 750 mmHg 98%
    12:00 -1°C° 0 mm 5 mps 749 mmHg 99%
    13:00 0°C° 0.2 mm 5 mps 749 mmHg 99%
    14:00 0°C° 0.2 mm 5 mps 748 mmHg 99%
    15:00 0°C° 0.2 mm 5 mps 748 mmHg 99%
    16:00 0°C° 0.9 mm 5 mps 748 mmHg 99%
    17:00 0°C° 0.9 mm 5 mps 748 mmHg 99%
    18:00 0°C° 0.9 mm 4 mps 748 mmHg 99%
    19:00 -2°C° 0.1 mm 5 mps 749 mmHg 96%
    20:00 -4°C° 0.1 mm 5 mps 749 mmHg 93%
    21:00 -6°C° 0.1 mm 6 mps 749 mmHg 91%
    22:00 -6°C° 0.1 mm 6 mps 750 mmHg 90%
    23:00 -8°C° 0.1 mm 6 mps 751 mmHg 90%

    Tomorrow, 22 January, Tuesday

    Time Temperature Precipitation Wind Pressure Humidity
    00:00 -8°C° 0.1 mm 6 mps 752 mmHg 90%
    01:00 -9°C° 0 mm 6 mps 752 mmHg 89%
    02:00 -10°C° 0 mm 5 mps 753 mmHg 89%
    03:00 -11°C° 0 mm 5 mps 753 mmHg 89%
    04:00 -12°C° 0 mm 4 mps 754 mmHg 90%
    05:00 -14°C° 0 mm 4 mps 754 mmHg 91%
    06:00 -14°C° 0 mm 3 mps 755 mmHg 92%
    07:00 -14°C° 0 mm 3 mps 755 mmHg 92%
    08:00 -15°C° 0 mm 3 mps 756 mmHg 92%
    09:00 -15°C° 0 mm 3 mps 756 mmHg 91%
    10:00 -13°C° 0 mm 2 mps 757 mmHg 90%
    11:00 -10°C° 0 mm 2 mps 757 mmHg 89%
    12:00 -9°C° 0 mm 2 mps 757 mmHg 88%
    13:00 -9°C° 0 mm 2 mps 757 mmHg 88%
    14:00 -8°C° 0 mm 2 mps 757 mmHg 89%
    15:00 -7°C° 0 mm 1 mps 757 mmHg 89%
    16:00 -9°C° 0 mm 2 mps 757 mmHg 89%
    17:00 -12°C° 0 mm 2 mps 757 mmHg 89%
    18:00 -13°C° 0 mm 2 mps 758 mmHg 90%
    19:00 -13°C° 0 mm 2 mps 758 mmHg 89%
    20:00 -14°C° 0 mm 2 mps 758 mmHg 89%
    21:00 -14°C° 0 mm 2 mps 758 mmHg 89%
    22:00 -14°C° 0 mm 2 mps 758 mmHg 89%
    23:00 -15°C° 0 mm 3 mps 758 mmHg 89%

    Day after tomorrow, 23 January, Wednesday

    Time Temperature Precipitation Wind Pressure Humidity
    00:00 -15°C° 0 mm 3 mps 758 mmHg 90%
    01:00 -15°C° 0 mm 3 mps 757 mmHg 89%
    02:00 -15°C° 0 mm 3 mps 757 mmHg 89%
    03:00 -15°C° 0 mm 3 mps 757 mmHg 89%
    04:00 -15°C° 0 mm 3 mps 757 mmHg 89%
    05:00 -16°C° 0 mm 4 mps 757 mmHg 89%
    06:00 -16°C° 0 mm 4 mps 756 mmHg 89%
    07:00 -15°C° 0 mm 4 mps 756 mmHg 90%
    08:00 -14°C° 0 mm 4 mps 756 mmHg 90%
    09:00 -14°C° 0 mm 5 mps 757 mmHg 91%
    10:00 -12°C° 0 mm 5 mps 756 mmHg 89%
    11:00 -11°C° 0 mm 5 mps 756 mmHg 87%
    12:00 -9°C° 0 mm 6 mps 756 mmHg 85%
    13:00 -9°C° 0 mm 6 mps 755 mmHg 83%
    14:00 -8°C° 0 mm 6 mps 755 mmHg 82%
    15:00 -6°C° 0 mm 6 mps 755 mmHg 81%
    16:00 -6°C° 0.1 mm 6 mps 754 mmHg 80%
    17:00 -6°C° 0.1 mm 6 mps 754 mmHg 80%
    18:00 -6°C° 0.1 mm 6 mps 754 mmHg 79%
    19:00 -6°C° 0 mm 6 mps 753 mmHg 78%
    20:00 -6°C° 0 mm 6 mps 753 mmHg 78%
    21:00 -7°C° 0 mm 7 mps 752 mmHg 77%
    22:00 -6°C° 0.1 mm 6 mps 752 mmHg 80%
    23:00 -6°C° 0.1 mm 6 mps 752 mmHg 83%

    24 January, Thursday

    Time Temperature Precipitation Wind Pressure Humidity
    00:00 -6°C° 0.1 mm 6 mps 752 mmHg 86%
    01:00 -5°C° 0 mm 6 mps 751 mmHg 87%
    02:00 -5°C° 0 mm 6 mps 751 mmHg 88%
    03:00 -5°C° 0 mm 6 mps 751 mmHg 89%
    04:00 -5°C° 0 mm 6 mps 750 mmHg 89%
    05:00 -4°C° 0 mm 6 mps 750 mmHg 89%
    06:00 -4°C° 0 mm 6 mps 750 mmHg 89%
    07:00 -4°C° 0 mm 6 mps 750 mmHg 90%
    08:00 -4°C° 0 mm 5 mps 750 mmHg 90%
    09:00 -4°C° 0 mm 5 mps 750 mmHg 90%
    10:00 -2°C° 0 mm 4 mps 750 mmHg 93%
    11:00 -2°C° 0 mm 4 mps 750 mmHg 95%
    12:00 0°C° 0 mm 3 mps 750 mmHg 97%
    13:00 0°C° 0 mm 3 mps 749 mmHg 97%
    14:00 0°C° 0 mm 3 mps 749 mmHg 97%
    15:00 0°C° 0 mm 3 mps 749 mmHg 97%
    16:00 +1°C° 0 mm 2 mps 749 mmHg 93%
    17:00 +1°C° 0 mm 2 mps 749 mmHg 90%
    18:00 +1°C° 0 mm 2 mps 749 mmHg 86%
    19:00 +1°C° 0 mm 2 mps 749 mmHg 86%
    20:00 +1°C° 0 mm 2 mps 749 mmHg 85%
    21:00 +1°C° 0 mm 2 mps 749 mmHg 85%
    22:00 +1°C° 0 mm 2 mps 749 mmHg 85%
    23:00 +1°C° 0 mm 2 mps 749 mmHg 84%

    25 January, Friday

    Time Temperature Precipitation Wind Pressure Humidity
    00:00 +2°C° 0 mm 1 mps 749 mmHg 84%
    01:00 +1°C° 0 mm 2 mps 749 mmHg 84%
    02:00 +1°C° 0 mm 2 mps 749 mmHg 84%
    03:00 +1°C° 0 mm 2 mps 749 mmHg 84%
    04:00 +1°C° 0 mm 2 mps 749 mmHg 84%
    05:00 0°C° 0 mm 3 mps 748 mmHg 85%
    06:00 0°C° 0 mm 3 mps 748 mmHg 85%
    07:00 -1°C° 0 mm 3 mps 748 mmHg 87%
    08:00 -1°C° 0 mm 3 mps 749 mmHg 88%
    09:00 -1°C° 0 mm 3 mps 749 mmHg 90%
    10:00 -1°C° 0 mm 3 mps 749 mmHg 93%
    11:00 0°C° 0 mm 3 mps 749 mmHg 96%
    12:00 0°C° 0 mm 3 mps 749 mmHg 99%
    13:00 0°C° 0.1 mm 3 mps 749 mmHg 99%
    14:00 0°C° 0.1 mm 3 mps 749 mmHg 99%
    15:00 +1°C° 0.1 mm 2 mps 749 mmHg 99%
    16:00 +1°C° 0.1 mm 2 mps 749 mmHg 99%
    17:00 +1°C° 0.1 mm 2 mps 749 mmHg 98%
    18:00 0°C° 0.1 mm 3 mps 749 mmHg 98%
    19:00 +1°C° 0.2 mm 3 mps 749 mmHg 98%
    20:00 +1°C° 0.2 mm 3 mps 749 mmHg 98%
    21:00 +1°C° 0.2 mm 3 mps 749 mmHg 99%
    22:00 +1°C° 0 mm 3 mps 749 mmHg 99%
    23:00 +1°C° 0 mm 3 mps 748 mmHg 99%

    26 January, Saturday

    Time Temperature Precipitation Wind Pressure Humidity
    00:00 +1°C° 0 mm 3 mps 748 mmHg 99%
    01:00 +1°C° 0 mm 3 mps 748 mmHg 99%
    02:00 +1°C° 0 mm 3 mps 748 mmHg 99%
    03:00 +1°C° 0 mm 3 mps 748 mmHg 98%
    04:00 0°C° 0 mm 3 mps 747 mmHg 98%
    05:00 0°C° 0 mm 3 mps 747 mmHg 98%
    06:00 +1°C° 0 mm 2 mps 747 mmHg 98%
    07:00 +1°C° 0 mm 2 mps 747 mmHg 98%
    08:00 +1°C° 0 mm 2 mps 747 mmHg 99%
    09:00 +1°C° 0 mm 2 mps 747 mmHg 99%
    10:00 +2°C° 0 mm 2 mps 747 mmHg 99%
    11:00 +2°C° 0 mm 2 mps 747 mmHg 99%
    12:00 +2°C° 0 mm 2 mps 746 mmHg 99%
    13:00 +2°C° 0.2 mm 2 mps 746 mmHg 99%
    14:00 +2°C° 0.2 mm 2 mps 746 mmHg 99%
    15:00 +2°C° 0.2 mm 2 mps 746 mmHg 99%
    16:00 +2°C° 0.4 mm 2 mps 746 mmHg 99%
    17:00 +2°C° 0.4 mm 2 mps 745 mmHg 99%
    18:00 +3°C° 0.4 mm 1 mps 745 mmHg 99%
    19:00 +2°C° 0.2 mm 2 mps 745 mmHg 99%
    20:00 +2°C° 0.2 mm 2 mps 745 mmHg 99%
    21:00 +2°C° 0.2 mm 2 mps 745 mmHg 99%
    22:00 +2°C° 0.1 mm 2 mps 745 mmHg 99%
    23:00 +2°C° 0.1 mm 2 mps 745 mmHg 99%
    Show more